Other Public Products
Issued by NWS Grand Forks, ND

Home | Current Version | Previous Version | Text Only | Print | Product List | Glossary Off
Versions: 1 2 3 4 5 6 7 8 9 10 11 12 13 14 15 16 17 18 19 20 21 22 23 24 25 26 27 28 29 30 31 32 33 34 35 36 37 38 39 40 41 42 43 44 45 46 47 48 49 50

000
FPUS83 KFGF 032110
OPUFGF
PRAIRIE TO PINES WEATHER ROUNDUP
NATIONAL WEATHER SERVICE EASTERN NORTH DAKOTA/GRAND FORKS ND
400 PM CDT MON AUG 03 2015

 **SATELLITE DATA USED TO AUGMENT SKY COVER AT AUTOMATED STATIONS**
 *****  WEATHER ACROSS EASTERN NORTH DAKOTA  *****

CITY           SKY/WX    TMP DP  RH WIND       PRES   REMARKS
GRAND FORKS    MOSUNNY   77  49  37 NW12      29.91F
GRAND FORKS AF SUNNY     77  48  35 NW10G20   29.93S
GRAND CITY NWS   N/A     79 N/A N/A N2          N/A
BUXTON         NOT AVBL
DEVILS LAKE    SUNNY     77  45  31 NW15      29.95F
FARGO          SUNNY     80  46  30 N14G20    29.92F
WAHPETON ARPT  CLEAR     79  41  25 NW18      29.94S
$$

 *****  WEATHER ACROSS CENTRAL AND WESTERN NORTH DAKOTA  *****

CITY           SKY/WX    TMP DP  RH WIND       PRES   REMARKS
JAMESTOWN      SUNNY     76  45  33 NW7       29.97S
BISMARCK       SUNNY     82  47  29 N12       29.98F
MINOT          SUNNY     78  42  27 SW5       29.98F
MINOT AFB      SUNNY     82  44  26 VRB5      29.97F
GARRISON         N/A     78  49  35 N8        29.99F
WILLISTON      SUNNY     84  43  23 N8        29.98F
DICKINSON      SUNNY     81  48  31 VRB3      29.99F
HETTINGER      SUNNY     83  48  29 NE7       30.01F
$$

 *****  OTHER OBSERVATIONS NORTHEAST NORTH DAKOTA  *****

CITY           SKY/WX    TMP DP  RH WIND       PRES   REMARKS
WALHALLA       NOT AVBL
LANGDON        FAIR      77  43  29 NW16G22   29.96S
CAVALIER       FAIR      75  48  38 NW13G20   29.92F
GRAFTON        FAIR      77  50  38 NW13G18   29.93S
CANDO          NOT AVBL
FORT TOTTEN    NOT AVBL
ROLLA          NOT AVBL
RUGBY          NOT AVBL
 ***** THE ABOVE OBSERVATIONS ARE NON NWS ARE NOT QUALITY
        CONTROLLED AND MAY MIS-REPORT RAIN FOR SNOW...
$$

 *****  OTHER OBSERVATIONS SOUTHEAST NORTH DAKOTA *****

CITY           SKY/WX    TMP DP  RH WIND       PRES   REMARKS
COOPERSTOWN    NOT AVBL
VALLEY CITY    FAIR      77  46  33 NW10G21   29.96F
OAKES            N/A     79  50  36 NW7       29.97S
GWINNER        FAIR      79  48  34 NW10G16   29.97R
SHEYENNE NWR     N/A     79  47  32 N7        29.95
BUFFALO        NOT AVBL
WYNDMERE         N/A     79  46  31 NW9         N/A
 ***** THE ABOVE OBSERVATIONS ARE NON NWS ARE NOT QUALITY
       CONTROLLED AND MAY MIS-REPORT RAIN FOR SNOW...
$$

  *****  WEATHER ACROSS NORTHERN MINNESOTA  *****

CITY           SKY/WX    TMP DP  RH WIND       PRES   REMARKS
FLAG ISLAND    CLOUDY    64  54  68 NW17      29.87S
WARROAD        MOSUNNY   68  54  60 NW15G22   29.90S
ROSEAU         MOSUNNY   72  54  53 N13G18    29.90S
HALLOCK        MOSUNNY   75  46  35 NW15G22   29.91S
THF RVR FALLS  MOSUNNY   72  48  43 NW15G23   29.93S
HALSTAD        NOT AVBL
FOSSTON        MOSUNNY   75  48  38 NW12G21   29.93S
BAUDETTE       CLOUDY    67  52  58 NW21G28   29.89R
WASKISH        CLOUDY    66  54  63 W14       29.90S
CROOKSTON      SUNNY     75  48  38 NW17G26   29.93S
$$
  *****  WEATHER ACROSS CENTRAL AND WEST MINNESOTA  *****

CITY           SKY/WX    TMP DP  RH WIND       PRES   REMARKS
BEMIDJI        PTSUNNY   72  52  49 NW18G29   29.90F
PARK RAPIDS    MOSUNNY   73  50  44 NW14G24   29.91S
WADENA         SUNNY     75  48  38 NW15G23   29.92S
DETROIT LAKES  SUNNY     73  46  38 NW17      29.95S
MOORHEAD       SUNNY     75  52  43 NW12      29.93F
FERGUS FALLS   SUNNY     75  48  38 N10G22    29.92S
ELBOW LAKE     FAIR      76  50  40 NW12G17   29.93F
MORRIS MN      SUNNY     79  52  38 NW16      29.93S
STAPLES        MOSUNNY   75  46  35 NW14      29.91R
WHEATON        SUNNY     75  50  41 NW14      29.95F
$$
  *****  WEATHER ELSEWHERE ACROSS MINNESOTA  *****

CITY           SKY/WX    TMP DP  RH WIND       PRES   REMARKS
DULUTH         PTSUNNY   69  51  52 W16       29.85S
INTRNTL FALLS  LGT RAIN  60  57  89 NW15G22   29.86R
ELY            RAIN      61  55  82 W8        29.84R
CLOQUET        CLOUDY    70  52  52 NW10      29.87S
BRAINERD       CLOUDY    75  48  38 NW12      29.89F
HIBBING        CLOUDY    68  52  56 W16G23    29.86S
ALEXANDRIA     SUNNY     76  49  38 NW15G21   29.95R
SAINT CLOUD    PTSUNNY   78  48  34 NW12      29.89F
MINNEAPOLIS    MOSUNNY   79  47  32 W16G22    29.90S
$$

  *****  WEATHER ACROSS SOUTH DAKOTA  *****

CITY           SKY/WX    TMP DP  RH WIND       PRES   REMARKS
SIOUX FALLS    MOSUNNY   81  58  45 W5        29.97F
BROOKINGS      MOSUNNY   79  55  44 NW7       29.99S
WATERTOWN      SUNNY     78  51  38 W10       29.97F
HURON          SUNNY     82  52  35 W6        29.96F
SISSETON         N/A     79  52  38 N12G21    29.93F
ABERDEEN       SUNNY     82  50  32 N6        29.96F
MITCHELL       SUNNY     84  58  40 N7        29.96F
PIERRE         SUNNY     84  53  34 VRB5      29.95F
MOBRIDGE       SUNNY     84  53  34 NW8       29.95F HAZE
RAPID CITY     MOSUNNY   83  59  44 SE10G20   29.99
$$

  *****  SOME WEATHER IN NEARBY STATES *****

CITY           SKY/WX    TMP DP  RH WIND       PRES   REMARKS
GLASGOW MT     SUNNY     87  47  24 E14       29.93F
GREAT FALLS MT SUNNY     91  45  20 E6        29.86F
CHEYENNE WY    CLOUDY    80  44  27 S21G30    30.14R
SCOTTSBLUFF NE CLOUDY    88  61  40 E15       29.98F
OMAHA NE       PTSUNNY   82  61  48 NW5       29.97F
DES MOINES IA  MOSUNNY   83  56  39 VRB3      29.94F
DAVENPORT IA   SUNNY     79  55  43 W9        29.92S
CHICAGO IL     MOSUNNY   82  47  29 W15       29.85S
EAU CLAIRE WI  MOSUNNY   74  48  39 NW14      29.87R
LA CROSSE WI   SUNNY     81  50  33 NW12G22   29.87F
$$

  *****  SOME NATIONAL WEATHER *****

CITY           SKY/WX    TMP DP  RH WIND       PRES   REMARKS
LA GUARDIA NY  MOSUNNY   90  64  42 S17G25    29.76F HX  91
RALEIGH NC     MOSUNNY   94  66  39 S9        29.89F HX  97
ATLANTA GA     MOSUNNY   92  67  43 VRB3      29.92S HX  95
NEW ORLEANS LA PTSUNNY   86  73  65 S12       29.92R HX  93
OKLAHOMA CITY  PTSUNNY   83  68  60 S7        29.94F
ALBUQUERQUE NM MOSUNNY   87  46  24 N13       30.14F
SALT LAKE CITY LGT RAIN  65  58  78 NW3       30.15R
LOS ANGELES CA PTSUNNY   73  65  75 W13       29.91F
BOISE ID       CLOUDY    87  49  26 CALM      29.91F
SEATTLE WA     MOSUNNY   77  54  44 CALM      29.92F
$$

*** WEATHER ACROSS MANITOBA...SASKATCHEWAN AND ONTARIO ***
                ***ONTARIO***

CITY           SKY/WX    TMP DP  RH WIND       PRES   REMARKS
GERALDTON      PTSUNNY   59  48  67 NW12G21   29.69R
THUNDER BAY    PTSUNNY   68  54  60 W15G23    29.74S
SIOUX LOOKOUT  PTSUNNY   61  52  72 NW13G23   29.80R
TORONTO        MOSUNNY   79  50  36 W17       29.74S
BIG TROUT LK   LGT RAIN  50  48  93 NW13G20   29.77  FOG
PICKLE LAKE    CLOUDY    54  45  71 VRB6      29.78R
DRYDEN         CLOUDY    63  52  67 NW9G17    29.82S
KENORA         CLOUDY    63  52  67 NW8G17    29.87R
$$
                *** MANITOBA***

CITY           SKY/WX    TMP DP  RH WIND       PRES   REMARKS
BRANDON        MOSUNNY   79  46  31 NW15G24   29.95F
DAUPHIN        SUNNY     75  52  43 N9        29.91F
ISLAND LAKE    CLOUDY    55  48  76 N10G17    29.89R
PILOT MOUND      N/A     73  45  35 NW13G21     N/A
THE PAS        PTSUNNY   72  46  40 NE8       29.94S
THOMPSON       LGT RAIN  59  52  77 N9        29.94R
WINNIPEG       PTSUNNY   75  48  38 NW18G28   29.90F
LYNN LAKE      CLOUDY    64  50  59 N9        29.97F
CHURCHILL      CLOUDY    50  46  87 N7        29.94R
GILLAM         LGT RAIN  55  48  76 N9        29.92R
$$
                ***SASKATCHEWAN***

CITY           SKY/WX    TMP DP  RH WIND       PRES   REMARKS
ESTEVAN        PTSUNNY   79  48  34 W5        30.00S
KINDERSLEY     MOSUNNY   82  52  34 SE17G25   29.91F
LLOYDMINSTER   PTSUNNY   79  52  38 SE14G24   29.91F
PRINCE ALBERT  MOSUNNY   79  52  38 S6        29.96F
REGINA         MOSUNNY   81  52  36 NW3       30.00F


USA.gov is the U.S. government's official web portal to all federal, state and local government web resources and services.